Location: Gadern
(49.5873°N, 8.8138°E)
Time: 05:51:20
(UTC+00:00)

Lacrosse 5 rocket - Pass Details

Date: 19 May 2025
Orbit: 419 x 515 km, 57.0° (Epoch: 21 June)

Event Time Altitude Azimuth Distance (km) Brightness Sun altitude
Rises 21:24:00 0° 296° (WNW) 2,475 5.6 -15.7°
Reaches altitude 10° 21:26:30 10° 280° (W) 1,577 4.2 -15.9°
Maximum altitude 21:29:12 21° 230° (SW) 1,048 2.6 -16.1°
Enters shadow 21:29:54 20° 213° (SSW) 1,086 2.5 -16.2°
